ONEWEB-0029 (45445 NORAD) Tracking and Keplerian Element Data

This shows tracking and keplerian element data for the satellite.

Feedback or suggestion? Click here.




ElementValue
Catalog45445
NameONEWEB-0029
Epoch Orbit3310
Epoch Day304.91667824
Epoch Year2020
RAAN70.1237
Inclination87.8133
Eccentricity0.0026147
Argument of Perigee218.7164
Mean Anonmoly296.3207
Mean Motion13.92869907
Decay Rate1.6E-07
L11 45445U 20020X 20304.91667824 .00000016 00000-0 00000+0 0 9994
L22 45445 87.8133 70.1237 0026147 218.7164 296.3207 13.92869907 33103

Live tracking and technical data element details for ONEWEB-0029 (NORAD 45445). ONEWEB-0029 can be tracked NOW for your location showing map with azimuth and elevation plus other details from your city location.

Track the satellite on the map from your city or location and see movement details for azimuth, elevation, latitude, longitude, range, height, and movement on the map or in text.







IsCatalogInMostPopularTable: catalog: 45445, numindb: 52
Update: records affected: 1



GetName: 45445 ONEWEB-0029

Hit Count: updated at: Sat, 31 Oct 2020 12:35:53 GMT